Regional Weather Roundup
Issued by NWS Sioux Falls, SD

Home | Current Version | Previous Version | Text Only | Print | Product List | Glossary Off
Versions: 1 2 3 4 5 6 7 8 9 10 11 12 13 14 15 16 17 18 19 20 21 22 23 24 25 26 27 28 29 30 31 32 33 34 35 36 37 38 39 40 41 42 43 44 45 46 47 48 49 50

000
ASUS43 KFSD 171810
RWRFSD

WEATHER ROUNDUP FOR SE SOUTH DAKOTA/SW MINNESOTA/NW IOWA
NATIONAL WEATHER SERVICE SIOUX FALLS SD
100 PM CDT WED SEP 17 2014

NOTE: "FAIR" INDICATES FEW OR NO CLOUDS BELOW 12,000 FEET WITH NO
SIGNIFICANT WEATHER AND OR OBSTRUCTIONS TO VISIBILITY.


SDZ038>040-050-052>070-171900-
SOUTHEAST SOUTH DAKOTA

CITY           SKY/WX    TMP DP  RH WIND       PRES   REMARKS
CHAMBERLAIN    SUNNY     74  58  58 E6        29.94F
6HR MIN TEMP:  44; 6HR MAX TEMP:  74;

HURON          SUNNY     75  55  49 NE7       29.93F
6HR MIN TEMP:  45; 6HR MAX TEMP:  75;

MADISON        FAIR      72  59  64 NE6       29.94F
MITCHELL       SUNNY     73  60  63 VRB3      29.94S
6HR MIN TEMP:  45; 6HR MAX TEMP:  74;

SIOUX FALLS    FAIR      73  58  59 NE5       29.93F
6HR MIN TEMP:  48; 6HR MAX TEMP:  73;

WINNER         FAIR      77  58  51 E10       29.94S
YANKTON        FAIR      73  61  64 CALM      29.92S
$$

MNZ071-072-080-081-089-090-097-098-171900-
SOUTHWEST MINNESOTA

CITY           SKY/WX    TMP DP  RH WIND       PRES   REMARKS
FAIRMONT       FAIR      70  52  52 S3        29.95F
JACKSON        FAIR      72  54  53 CALM      29.95F
LUVERNE        FAIR      72  55  56 NE5       29.94F
MARSHALL       FAIR      70  55  60 E5        29.94S
6HR MIN TEMP:  48; 6HR MAX TEMP:  70;

MONTEVIDEO     FAIR      73  57  56 S5        29.95S
PIPESTONE      FAIR      72  57  60 E3        29.95R
REDWOOD FALLS  FAIR      73  56  54 NE6       29.94S
TRACY          FAIR      70  58  65 CALM      29.95S
WINDOM         PTSUNNY   72  55  56 SE3       29.95S
WORTHINGTON    PTSUNNY   70  55  60 SE3       29.95S
$$

IAZ001>003-012>014-020>022-031-032-NEZ013-014-SDZ071-171900-
NORTHWEST IOWA

CITY           SKY/WX    TMP DP  RH WIND       PRES   REMARKS
CHEROKEE       FAIR      74  58  58 SE5       29.94S
DENISON        FAIR      73  59  60 NE6       29.92F
ESTHERVILLE    FAIR      71  57  61 VRB5      29.94F
LE MARS        FAIR      73  59  60 CALM      29.93S
ORANGE CITY    FAIR      73  55  53 S5        29.93S
SHELDON        FAIR      73  57  56 VRB5      29.93S
SIOUX CITY     FAIR      75  59  57 SE5       29.93S
6HR MIN TEMP:  53; 6HR MAX TEMP:  75;

SPENCER        FAIR      73  58  59 SE6       29.94F
6HR MIN TEMP:  48; 6HR MAX TEMP:  73;

STORM LAKE     FAIR      72  59  64 SE8       29.94F
$$

ABBREVIATIONS USED IN REMARKS
   TC - TEMPERATURE IN CELSIUS
  WCI - WIND CHILL INDEX
   HX - HEAT INDEX
  VSB - VISIBILITY




USA.gov is the U.S. government's official web portal to all federal, state and local government web resources and services.